EW6448 Weather Reports


Display with metric or nautical units.
time (UTC)temp
F
wind
direction
speed
MPH
gust
MPH
rain 1hr
in
rain 24hr
in
rain mn
in
humidity
%
barometer
mb
20260504200046 74 272 0.0 0.0 0.00 0.00 0.00 48 1013.9
20260504194548 74 293 0.0 1.0 0.00 0.00 0.00 46 1014.3
20260504193039 74 266 1.0 4.0 0.00 0.00 0.00 49 1014.7
20260504191539 74 280 0.0 1.0 0.00 0.00 0.00 49 1014.9
20260504190032 73 279 1.0 5.0 0.00 0.00 0.00 45 1015.2
20260504184533 72 295 0.0 2.0 0.00 0.00 0.00 47 1015.5
20260504183026 72 295 0.0 1.0 0.00 0.00 0.00 46 1015.7
20260504181530 71 295 0.0 3.0 0.00 0.00 0.00 48 1015.9
20260504180019 71 290 0.0 1.0 0.00 0.00 0.00 50 1016.2
20260504174515 69 291 0.0 7.0 0.00 0.00 0.00 51 1016.2
20260504173012 68 270 0.0 4.0 0.00 0.00 0.00 50 1016.4
20260504171510 67 275 0.0 1.0 0.00 0.00 0.00 52 1016.7
20260504110112 42 282 0.0 0.0 0.00 0.00 0.00 35 1017.9
20260504081547 43 282 0.0 0.0 0.00 0.00 0.00 36 1018.7
20260504050019 46 282 0.0 0.0 0.00 0.00 0.00 67 1018.6
20260504044517 47 282 0.0 0.0 0.00 0.00 0.00 67 1018.7
20260504043015 47 282 0.0 0.0 0.00 0.00 0.00 70 1018.6
20260504041513 47 282 0.0 0.0 0.00 0.00 0.00 70 1018.4
20260504040011 47 282 0.0 0.0 0.00 0.00 0.00 70 1018.5
20260504034519 47 282 0.0 0.0 0.00 0.00 0.00 70 1018.6
20260504033020 47 282 0.0 0.0 0.00 0.00 0.00 70 1018.5
20260504031508 48 282 0.0 0.0 0.00 0.00 0.00 69 1018.3
20260504030002 48 282 0.0 0.0 0.00 0.00 0.00 70 1018.3
20260504024602 49 282 0.0 0.0 0.00 0.00 0.00 70 1018.3
20260504023053 49 282 0.0 0.0 0.00 0.00 0.00 68 1018.2
20260504021552 50 282 0.0 0.0 0.00 0.00 0.00 68 1018.3
20260504020048 51 282 0.0 0.0 0.00 0.00 0.00 69 1018.0
20260504014540 51 282 0.0 0.0 0.00 0.00 0.00 68 1018.1
20260504013043 52 282 0.0 0.0 0.00 0.00 0.00 66 1018.2
20260504011530 53 282 0.0 0.0 0.00 0.00 0.00 59 1018.1
20260504010028 55 282 0.0 0.0 0.00 0.00 0.00 59 1017.8
20260504004537 56 282 0.0 0.0 0.00 0.00 0.00 49 1017.7
20260504003016 57 282 0.0 0.0 0.00 0.00 0.00 48 1017.4
20260504001512 59 282 0.0 0.0 0.00 0.00 0.00 46 1017.3
20260504000007 61 282 0.0 0.0 0.00 0.00 0.00 42 1017.5
20260503234503 61 282 0.0 0.0 0.00 0.00 0.00 43 1017.3
20260503233058 61 287 0.0 0.0 0.00 0.00 0.00 44 1017.5
20260503231556 61 287 0.0 0.0 0.00 0.00 0.00 43 1017.5
20260503230052 62 287 0.0 0.0 0.00 0.00 0.00 44 1017.5
20260503224545 62 282 0.0 0.0 0.00 0.00 0.00 38 1017.7
20260503223041 63 284 0.0 0.0 0.00 0.00 0.00 36 1017.8
20260503221536 64 301 0.0 0.0 0.00 0.00 0.00 35 1017.9
20260503220034 64 297 0.0 0.0 0.00 0.00 0.00 36 1018.0
20260503214527 64 290 0.0 0.0 0.00 0.00 0.00 38 1018.1
20260503213027 64 118 0.0 0.0 0.00 0.00 0.00 35 1018.2
20260503211522 65 217 0.0 0.0 0.00 0.00 0.00 36 1018.4
20260503210013 65 217 0.0 0.0 0.00 0.00 0.00 37 1018.5
20260503204510 64 217 0.0 0.0 0.00 0.00 0.00 40 1018.6
20260503203004 63 217 0.0 0.0 0.00 0.00 0.00 36 1019.0
20260503201601 63 289 0.0 0.0 0.00 0.00 0.00 38 1019.2